OSCAR 7 (AO-7) 1 07530U 74089B 26035.99692857 -.00000052 00000+0 -34261-4 0 9992 2 07530 101.9971 47.8362 0012273 24.7267 32.9044 12.53695614343956 PHASE 3B (AO-10) 1 14129U 83058B 26032.88008791 -.00000076 00000+0 00000+0 0 9997 2 14129 25.9660 242.3970 6057197 78.0086 340.2671 2.05871360292703 UOSAT 2 (UO-11) 1 14781U 84021B 26035.84430842 .00002549 00000+0 26755-3 0 9992 2 14781 97.7894 3.0643 0006029 260.5474 99.5062 14.90378659237418 LUSAT (LO-19) 1 20442U 90005G 26036.10781530 .00000195 00000+0 86577-4 0 9999 2 20442 98.8950 54.2115 0010769 230.1119 129.9118 14.34073799883468 EYESAT A (AO-27) 1 22825U 93061C 26036.12172876 .00000161 00000+0 78403-4 0 9992 2 22825 98.7052 103.4956 0009303 124.4758 235.7304 14.30901685688111 ITAMSAT (IO-26) 1 22826U 93061D 26036.14032318 .00000192 00000+0 89347-4 0 9994 2 22826 98.6999 103.4186 0009974 109.8697 250.3561 14.31324849688423 RADIO ROSTO (RS15) 1 23439U 94085A 26036.23532414 -.00000181 00000+0 -39411-2 0 9999 2 23439 64.8160 156.6192 0151495 28.2096 332.6932 11.27582836281024 JAS-2 (FO-29) 1 24278U 96046B 26036.04243748 -.00000009 00000+0 23797-4 0 9998 2 24278 98.5424 262.8716 0350862 79.3223 284.7218 13.53266517455295 TECHSAT 1B (GO-32) 1 25397U 98043D 26035.93596891 .00000113 00000+0 68849-4 0 9999 2 25397 98.9983 25.4168 0000671 185.1041 175.0130 14.24396442432504 ISS (ZARYA) 1 25544U 98067A 26035.92128257 .00010436 00000+0 20116-3 0 9998 2 25544 51.6314 234.3429 0011123 65.2841 294.9304 15.48398202551254 PCSAT (NO-44) 1 26931U 01043C 26035.93934210 .00000219 00000+0 11286-3 0 9998 2 26931 67.0487 226.3112 0007053 266.4469 93.5826 14.31892742271514 SAUDISAT 1C (SO-50) 1 27607U 02058C 26035.70306097 .00002263 00000+0 28517-3 0 9993 2 27607 64.5527 178.7782 0074309 286.6550 72.6407 14.82645923244817 CUTE-1 (CO-55) 1 27844U 03031E 26036.17756861 .00000442 00000+0 21069-3 0 9990 2 27844 98.6774 46.3829 0009139 203.0782 156.9987 14.24237805172881 CUBESAT XI-IV (CO-57) 1 27848U 03031J 26035.95980955 .00000380 00000+0 18611-3 0 9992 2 27848 98.6803 45.9868 0008714 223.0239 137.0259 14.23537045172568 MOZHAETS 4 (RS22) 1 27939U 03042A 26036.19654263 .00001145 00000+0 18582-3 0 9999 2 27939 98.3394 216.8611 0010870 332.8963 137.8850 14.73154782196115 CUBESAT XI-V 1 28895U 05043F 26035.95701829 .00002744 00000+0 44319-3 0 9991 2 28895 98.2776 188.9782 0013162 264.4865 95.4840 14.72167972 82291 CUTE-1.7+APD II (CO-65) 1 32785U 08021C 26036.13603943 .00009014 00000+0 59093-3 0 9994 2 32785 97.8164 15.0501 0011065 112.9678 247.2718 15.07884497965285 SEEDS II (CO-66) 1 32791U 08021J 26035.92276247 .00027303 00000+0 10114-2 0 9991 2 32791 97.7489 28.0380 0005429 71.1184 289.0642 15.27604756967063 YUBILEINY (RS30) 1 32953U 08025A 26036.19452466 .00000010 00000+0 15668-5 0 9992 2 32953 82.4991 77.5493 0018481 237.3255 122.6042 12.43174725803296 KKS-1 (KISEKI) 1 33499U 09002H 26036.14064558 .00002621 00000+0 33165-3 0 9990 2 33499 98.1190 316.5445 0008152 9.1633 350.9727 14.82694918916623 SWISSCUBE 1 35932U 09051B 26035.69947547 .00001679 00000+0 34344-3 0 9997 2 35932 98.4132 301.2528 0005557 266.6937 93.3628 14.62160983869793 BEESAT-1 1 35933U 09051C 26035.71046934 .00001410 00000+0 29462-3 0 9999 2 35933 98.4060 301.1700 0004105 284.7038 75.3707 14.61449802869838 ITUPSAT1 1 35935U 09051E 26036.13442350 .00001325 00000+0 28497-3 0 9992 2 35935 98.4149 300.9275 0006357 294.0004 66.0530 14.60192796869466 XIWANG-1 (HOPE-1) 1 36122U 09072B 26036.15725801 .00000266 00000+0 81310-3 0 9997 2 36122 100.3864 352.2019 0007478 170.8917 189.2333 13.16435270775638 O/OREOS (USA 219) 1 37224U 10062C 26036.03810497 .00004301 00000+0 41755-3 0 9998 2 37224 71.9719 19.5339 0016567 312.1554 47.8208 14.93067731 96915 JUGNU 1 37839U 11058B 26036.17381715 .00000537 00000+0 14103-3 0 9991 2 37839 19.9622 30.4282 0018760 58.9977 23.9800 14.13726211740323 SRMSAT 1 37841U 11058D 26035.97710498 .00000490 00000+0 12221-3 0 9992 2 37841 19.9710 139.6915 0011595 188.9428 328.1612 14.11535060739117 STRAND-1 1 39090U 13009E 26035.97945843 .00000490 00000+0 17948-3 0 9993 2 39090 98.3853 219.4896 0007574 265.7639 94.2682 14.37064439678079 ZACUBE-1 (TSHEPISOSAT) 1 39417U 13066B 26036.11260409 .00009870 00000+0 78610-3 0 9998 2 39417 97.8172 357.7837 0041021 332.5270 27.3784 14.99905630660920 GOMX-1 1 39430U 13066Q 26036.19843229 .00002769 00000+0 42275-3 0 9996 2 39430 97.6572 244.9275 0130420 140.8847 220.1878 14.68951274650536 CUBEBUG-2 (LO-74) 1 39440U 13066AA 26036.12015737 .00006378 00000+0 60411-3 0 9997 2 39440 97.8774 344.7644 0060650 104.6678 256.1274 14.92558288657282 FUNCUBE-1 (AO-73) 1 39444U 13066AE 26035.85259501 .00012699 00000+0 83378-3 0 9999 2 39444 97.8143 4.8634 0036210 295.2268 64.5207 15.07236015659711 UWE-3 1 39446U 13066AG 26036.15542270 .00009101 00000+0 79974-3 0 9994 2 39446 97.8556 351.5844 0051794 41.6077 318.9067 14.95748609657835 UNISAT-6 1 40012U 14033C 26035.98102924 .00006433 00000+0 70383-3 0 9998 2 40012 97.7670 191.2398 0046510 143.1848 217.2578 14.87357368626506 DUCHIFAT-1 1 40021U 14033M 26036.05195958 .00059277 00000+0 12084-2 0 9993 2 40021 98.0699 78.7287 0006076 178.7722 181.3541 15.46009571635221 QB50P1 1 40025U 14033R 26035.97480409 .00013365 00000+0 70305-3 0 9994 2 40025 98.0993 38.0722 0007955 329.7618 30.3153 15.15768804632983 LILACSAT-2 1 40908U 15049K 26036.18107138 .00024648 00000+0 49236-3 0 9996 2 40908 97.4853 68.2998 0008120 25.4911 334.6738 15.46780116575318 FOX-1A (AO-85) 1 40967U 15058D 26035.97753543 .00004216 00000+0 38532-3 0 9990 2 40967 64.7775 329.5811 0130465 108.8848 252.6462 14.90089308 93864 CAS-2T & KS-1Q 1 41847U 16066G 26036.14825421 .00002522 00000+0 36212-3 0 9994 2 41847 98.3947 113.3480 0343303 169.9119 190.9200 14.44347995485736 RADFXSAT (FOX-1B) 1 43017U 17073E 26036.06900093 .00012056 00000+0 54921-3 0 9994 2 43017 97.4898 266.0622 0159099 64.1463 297.6076 15.10127368445434 DIWATA-2B 1 43678U 18084H 26036.16608155 .00002299 00000+0 19105-3 0 9998 2 43678 98.1066 226.8661 0008242 228.8746 131.1765 14.99798084396421 ES'HAIL 2 1 43700U 18090A 26036.13321588 .00000000 00000+0 00000+0 0 9998 2 43700 0.0157 115.9416 0002408 245.9006 207.1790 1.00270204 26354 FOX-1CLIFF (AO-95) 1 43770U 18099N 26036.14097156 .00016501 00000+0 69227-3 0 9999 2 43770 97.4574 97.0528 0010687 93.5660 266.6799 15.23507756393091 ITASAT 1 43786U 18099AE 26036.13196097 .00010097 00000+0 51101-3 0 9995 2 43786 97.4233 90.3216 0014686 93.2386 267.0528 15.17114524392875 JY1SAT (JO-97) 1 43803U 18099AX 26036.10883657 .00024017 00000+0 85224-3 0 9997 2 43803 97.4323 98.8040 0006655 30.8568 329.3062 15.29035299393419 UWE-4 1 43880U 18111E 26035.70628624 .00032450 00000+0 87303-3 0 9993 2 43880 97.5868 318.8580 0012017 82.2690 277.9919 15.37740689390364 TIANYAN 01 1 44881U 19093C 26036.16891652 .00001990 00000+0 23196-3 0 9994 2 44881 97.7676 111.5671 0014106 155.7595 204.4287 14.86264906331808 RS-44 & BREEZE-KM R/B 1 44909U 19096E 26036.03745373 .00000006 00000+0 -29213-4 0 9997 2 44909 82.5174 67.5229 0218664 93.3664 269.2475 12.79746835285444 SALSAT 1 46495U 20068K 26035.92599215 .00013119 00000+0 48960-3 0 9996 2 46495 97.8829 31.1802 0011826 52.9908 307.2410 15.27479953295150 XW-3 (CAS-9) 1 50466U 21131B 26036.22120108 .00000698 00000+0 22987-3 0 9995 2 50466 98.5000 129.3593 0005028 127.1765 232.9883 14.41205736216109 GREENCUBE (IO-117) 1 53109U 22080E 26035.27077889 -.00000003 00000+0 00000+0 0 9996 2 53109 70.1642 344.4657 0009171 317.2122 42.7823 6.42583173 83522 UMKA 1 (RS40S) 1 57172U 23091G 26036.16886954 .00010017 00000+0 47957-3 0 9994 2 57172 97.5245 95.4062 0012438 214.8191 145.2231 15.19090041143956 CUBESX-HSE 3 (RS42S) 1 57178U 23091N 26036.21457972 .00019935 00000+0 73963-3 0 9994 2 57178 97.5274 100.3685 0011368 193.2024 166.8919 15.27569952144254 MONITOR-3 (RS58S) 1 57180U 23091Q 26036.17363603 .00017178 00000+0 69126-3 0 9992 2 57180 97.5268 98.8119 0012065 198.8942 161.1850 15.24892059144153 MONITOR-4 (RS57S) 1 57182U 23091S 26036.22613635 .00017030 00000+0 68372-3 0 9992 2 57182 97.5263 98.8278 0012036 199.1207 160.9581 15.24971359144162 MONITOR-2 (RS39S) 1 57184U 23091U 26036.16907597 .00009376 00000+0 47031-3 0 9993 2 57184 97.5268 95.3061 0010884 205.3908 154.6792 15.17498285143929 SVYATOBOR 1 (RS60S) 1 57187U 23091X 26036.20828009 .00014023 00000+0 57924-3 0 9998 2 57187 97.5274 99.4152 0009721 188.9031 171.2035 15.24081498144193 VIZARD-METEO (RS38S) 1 57189U 23091Z 26036.17265782 .00025778 00000+0 84743-3 0 9997 2 57189 97.5263 103.3472 0008147 173.3223 186.8128 15.31494973144453 NANOZOND 1 (RS49S) 1 57190U 23091AA 26036.21331211 .00155025 00000+0 16160-2 0 9991 2 57190 97.5161 114.1328 0003445 168.9921 191.1413 15.64027119145180 POLYTECH-UNIVERSE 3 (R*) 1 57191U 23091AB 26036.21290976 .00008861 00000+0 44186-3 0 9999 2 57191 97.5244 94.8586 0014922 224.5477 135.4558 15.17675114143923 UTMN 2 (RS27S) 1 57203U 23091AP 26036.17637097 .00020117 00000+0 72670-3 0 9994 2 57203 97.5266 101.8002 0008766 178.4708 181.6559 15.28473552144352 KUZGTU 1 (RS47S) 1 57217U 23091AV 26036.16720184 .00019284 00000+0 73860-3 0 9993 2 57217 97.5250 99.5037 0011444 196.4519 163.6349 15.26522653144215 SONATE-2 1 59112U 24043Q 26035.92865080 .00041636 00000+0 77265-3 0 9994 2 59112 97.5360 179.3592 0008233 332.0238 28.0568 15.48801476107352 MESAT1 1 60209U 24125G 26036.01248219 .00050527 00000+0 87521-3 0 9999 2 60209 97.2484 251.5749 0013400 352.1774 7.9267 15.50657115 89007 OOV-CUBE (TUBSAT-30) 1 60240U 24128F 26035.94472295 .00004187 00000+0 32283-3 0 9997 2 60240 61.9971 326.4546 0056713 105.4967 255.2396 15.02010305 86240 COLIBRI-S (RS67S) 1 61746U 24199M 26036.18658698 .00031665 00000+0 74406-3 0 9991 2 61746 97.3205 269.2136 0011172 46.4179 313.7993 15.41885410117038 HORS 3 (RS81S) 1 61753U 24199U 26036.17957942 .00042412 00000+0 86251-3 0 9995 2 61753 97.3173 270.1013 0009590 51.8937 308.3176 15.46130178117108 HORS 4 (RS82S) 1 61754U 24199V 26036.17242442 .00049923 00000+0 93407-3 0 9993 2 61754 97.3149 270.6745 0009468 50.9078 309.3014 15.48511868117146 HORIZON (RS59S) 1 61757U 24199Y 26036.15897670 .00121026 00000+0 13402-2 0 9994 2 61757 97.3137 273.6984 0007933 37.3450 322.8359 15.62558367117336 ARCTICSAT 1 (RS74S) 1 61762U 24199AD 26036.16240697 .00100176 00000+0 12391-2 0 9991 2 61762 97.3151 273.3930 0008004 34.7687 325.4091 15.59738731117310 SIT-2086 1 61764U 24199AF 26036.18053775 .00032631 00000+0 67129-3 0 9994 2 61764 97.3169 270.8591 0008773 37.0406 323.1447 15.45856248113993 MORDOVIA-IOT (RS50S) 1 61765U 24199AG 26035.82819866 .07816573 25446-5 12294-2 0 9997 2 61765 97.2744 278.0579 0002791 203.5371 156.5798 16.33971097114450 RUZAEVKA 390 (RS44S) 1 61766U 24199AH 26035.39930189 .00232784 00000+0 13144-2 0 9999 2 61766 97.3055 275.3350 0005741 45.8456 314.3282 15.78478469114234 HYPERVIEW 1G (RS66S) 1 61772U 24199AP 26036.21067479 .00075801 00000+0 11721-2 0 9995 2 61772 97.3142 271.5303 0010994 47.3367 312.8811 15.53760357114052 ALTAIR (RS65S) 1 61779U 24199AW 26036.16328432 .00018142 00000+0 54863-3 0 9995 2 61779 97.3219 266.4750 0015366 63.2188 297.0625 15.34147105116855 ASRTU-1 (AO-123) 1 61781U 24199AY 26036.18973914 .00015131 00000+0 46968-3 0 9993 2 61781 97.3198 266.0816 0015896 64.1394 296.1486 15.33348160113686 TUSUR GO (RS78S) 1 61782U 24199AZ 26036.17542209 .00132574 00000+0 14729-2 0 9992 2 61782 97.3093 272.7375 0009473 47.1612 313.0441 15.62419643114131 SAMSAT-IONOSPHERE (RS7*) 1 61784U 24199BB 26036.15962926 .00043919 00000+0 86743-3 0 9994 2 61784 97.3166 269.8304 0012594 52.3951 307.8441 15.46938468117086 RTU MIREA 1 (RS51S) 1 61785U 24199BC 26036.19406828 .00055560 00000+0 10369-2 0 9998 2 61785 97.3161 270.2266 0012175 50.3064 309.9259 15.48526563113967 TEVEL2-4 1 63213U 25052D 26036.12822102 .00026948 00000+0 94238-3 0 9991 2 63213 97.4063 292.6611 0001936 167.9948 192.1338 15.29507603 49891 TEVEL2-5 1 63214U 25052E 26036.13679975 .00026158 00000+0 91785-3 0 9998 2 63214 97.4062 292.6485 0001909 168.1678 191.9607 15.29403532 49895 TEVEL2-6 1 63215U 25052F 26036.14572493 .00025928 00000+0 91101-3 0 9993 2 63215 97.4064 292.6438 0001916 170.1673 189.9605 15.29361345 49892 TEVEL2-1 1 63217U 25052H 26036.13547139 .00025866 00000+0 91958-3 0 9994 2 63217 97.4039 292.3974 0001532 191.9962 168.1242 15.28978078 49885 TEVEL2-3 1 63218U 25052J 26036.13374583 .00025861 00000+0 91856-3 0 9998 2 63218 97.4035 292.4050 0001509 189.8885 170.2326 15.29008084 49881 TEVEL2-2 1 63219U 25052K 26036.13616516 .00025580 00000+0 90943-3 0 9998 2 63219 97.4041 292.3988 0001499 192.9491 167.1711 15.28979420 49887 TEVEL2-9 1 63237U 25052AD 26035.69602023 .00019633 00000+0 73479-3 0 9993 2 63237 97.4104 291.5858 0004615 247.8284 112.2465 15.27335106 49778 TEVEL2-7 1 63238U 25052AE 26035.97803288 .00023651 00000+0 88881-3 0 9999 2 63238 97.4104 291.8275 0004765 246.3593 113.7146 15.27159757 49811 TEVEL2-8 1 63239U 25052AF 26036.11560987 .00023613 00000+0 88789-3 0 9998 2 63239 97.4103 291.9456 0004753 246.1181 113.9560 15.27141419 49831 HADES-ICM 1 63492U 25052BN 26035.69655487 .00097873 00000+0 18033-2 0 9994 2 63492 97.4006 295.1501 0003690 214.9443 145.1565 15.48794083 50023 INNOSAT 16 (RS92S7) 1 64878U 25155C 26035.29391154 .00008172 00000+0 34380-3 0 9999 2 64878 97.4412 3.1460 0008938 299.6158 60.4188 15.23614355 60428 GEOSCAN 6 (RS92S6) 1 64879U 25155D 26035.24020678 .00014069 00000+0 53233-3 0 9995 2 64879 97.4413 3.6934 0005940 296.0523 64.0104 15.27039714 60453 GEOSCAN 1 (RS92S1) 1 64880U 25155E 26035.28455434 .00014977 00000+0 56031-3 0 9990 2 64880 97.4411 3.7923 0005847 296.7236 63.3404 15.27402296 60461 239ALFEROV (RS61S) 1 64881U 25155F 26035.27505973 .00018235 00000+0 65594-3 0 9999 2 64881 97.4418 3.9834 0005353 297.0730 62.9963 15.28654019 60476 GEOSCAN 2 (RS92S2) 1 64890U 25155Q 26036.15505092 .00017637 00000+0 65243-3 0 9995 2 64890 97.4412 4.7569 0004976 273.3984 86.6686 15.27741391 60601 GEOSCAN 5 (RS92S5) 1 64891U 25155R 26036.14332692 .00022847 00000+0 81129-3 0 9999 2 64891 97.4412 4.9362 0004236 304.8143 55.2698 15.29035591 60617 GEOSCAN 4 (RS92S4) 1 64892U 25155S 26036.13775926 .00023189 00000+0 82114-3 0 9995 2 64892 97.4416 4.9490 0004269 305.6470 54.4372 15.29124261 60615 GEOSCAN 3 (RS92S3) 1 64893U 25155T 26036.14116677 .00026939 00000+0 92182-3 0 9991 2 64893 97.4409 5.0868 0003915 311.7918 48.2988 15.30211191 60627 INNOSAT 3 (RS92S0) 1 64894U 25155U 26036.13812641 .00045734 00000+0 13788-2 0 9993 2 64894 97.4385 5.5236 0002930 325.9474 34.1580 15.34163619 60655